This demonstration page uses our WeatherBlox Daily Observations layout. Learn more.

Left ArrowRight Arrow

40.92945, -100.16068

Hourly Observations for December 22, 2020

Temp ( °F °C ) Dew Point ( °F °C ) Humidity (%) Winds ( mph kmh ) Pressure ( in mb ) Visibility ( mi km ) Precip ( " mm )
12:15 am 00:15 Clear 38 3.5 28 -2.2 67 67 SSE 7 11 30.11 1020 10 16.0934 0 0
12:35 am 00:35 Clear 39 3.8 28 -2.2 65 65 SSE 7 11 30.1 1019 10 16.0934 0 0
12:55 am 00:55 Clear 37 2.6 28 -2 72 72 S 7 11 30.09 1019 10 16.0934 0 0
1:15 am 01:15 Clear 37 3 29 -1.7 72 72 S 9 15 30.08 1019 10 16.0934 0 0
1:35 am 01:35 Clear 38 3.5 30 -1.3 71 71 SSW 8 13 30.06 1018 10 16.0934 0 0
1:55 am 01:55 Clear 38 3.4 30 -1.3 72 72 Calm 30.05 1018 10 16.0934 0 0
2:15 am 02:15 Clear 39 3.7 30 -1 72 72 SW 10 17 30.05 1018 10 16.0934 0 0
2:35 am 02:35 Clear 39 4 30 -1.1 70 70 SW 10 17 30.05 1018 10 16.0934 0 0
2:55 am 02:55 Clear 38 3.3 30 -1.2 73 73 SW 7 11 30.05 1018 10 16.0934 0 0
3:15 am 03:15 Clear 38 3.6 30 -0.9 73 73 SW 8 13 30.05 1018 10 16.0934 0 0
3:35 am 03:35 Clear 38 3.1 31 -0.8 76 76 SSW 6 9 30.05 1017 10 16.0934 0 0
3:55 am 03:55 Clear 39 4.1 31 -0.5 72 72 SSW 8 13 30.03 1017 10 16.0934 0 0
4:15 am 04:15 Clear 38 3.3 31 -0.7 75 75 SSW 6 9 30.02 1017 10 16.0934 0 0
4:35 am 04:35 Clear 40 4.5 31 -0.3 71 71 SSW 12 19 29.99 1016 10 16.0934 0 0
4:55 am 04:55 Clear 40 4.5 31 -0.4 71 71 S 9 15 29.98 1015 10 16.0934 0 0
5:15 am 05:15 Clear 38 3.6 31 -0.3 76 76 SSW 8 13 29.98 1015 10 16.0934 0 0
5:35 am 05:35 Clear 38 3.2 31 -0.5 77 77 S 13 20 29.98 1015 10 16.0934 0 0
5:55 am 05:55 Clear 38 3.4 31 -0.5 76 76 S 13 20 29.96 1015 10 16.0934 0 0
6:15 am 06:15 Clear 36 2 30 -1 81 81 S 10 17 29.98 1015 10 16.0934 0 0
6:35 am 06:35 Clear 35 1.5 30 -1.1 83 83 SE 9 15 29.97 1015 10 16.0934 0 0
6:55 am 06:55 Clear 35 1.5 29 -1.5 81 81 SE 7 11 29.96 1015 10 16.0934 0 0
7:15 am 07:15 Clear 34 1 29 -1.5 84 84 SSE 7 11 29.95 1014 10 16.0934 0 0
7:35 am 07:35 Clear 34 0.9 30 -1.2 86 86 S 9 15 29.94 1014 10 16.0934 0 0
7:55 am 07:55 Clear 35 1.8 30 -0.9 82 82 S 13 20 29.92 1013 10 16.0934 0 0
8:15 am 08:15 Sunny 36 2.3 30 -1 79 79 S 12 19 29.9 1013 10 16.0934 0 0
8:35 am 08:35 Sunny 37 3 31 -0.6 77 77 S 12 19 29.89 1012 10 16.0934 0 0
8:55 am 08:55 Sunny 39 3.9 31 -0.5 73 73 S 13 20 29.87 1011 10 16.0934 0 0
9:15 am 09:15 Sunny 40 4.5 31 -0.3 71 71 S 14 22 29.84 1011 10 16.0934 0 0
9:35 am 09:35 Sunny 41 4.8 32 -0.2 70 70 S 10 17 29.84 1010 10 16.0934 0 0
9:55 am 09:55 Sunny 43 5.9 32 0 66 66 SSE 8 13 29.82 1010 10 16.0934 0 0
10:15 am 10:15 Sunny 44 6.9 32 0 62 62 S 9 15 29.81 1009 10 16.0934 0 0
10:35 am 10:35 Sunny 45 7.1 33 0.3 62 62 S 12 19 29.8 1009 10 16.0934 0 0
10:55 am 10:55 Sunny 46 7.8 33 0.5 60 60 S 15 24 29.77 1008 10 16.0934 0 0
11:15 am 11:15 Sunny 47 8.6 34 1.2 60 60 S 20 31 29.74 1007 10 16.0934 0 0
11:35 am 11:35 Sunny 48 8.8 35 1.4 60 60 S 21 33 29.71 1006 10 16.0934 0 0
11:55 am 11:55 Sunny 49 9.3 35 1.6 59 59 S 18 30 29.7 1006 10 16.0934 0 0
12:15 pm 12:15 Sunny 50 9.8 36 2.2 59 59 S 18 30 29.67 1005 10 16.0934 0 0
12:35 pm 12:35 Sunny 51 10.6 36 2.1 56 56 S 16 26 29.66 1004 10 16.0934 0 0
12:55 pm 12:55 Sunny 53 11.6 37 2.8 55 55 SSE 14 22 29.63 1003 10 16.0934 0 0
1:15 pm 13:15 Sunny 53 11.9 38 3.1 55 55 S 15 24 29.59 1002 10 16.0934 0 0
1:35 pm 13:35 Sunny 55 12.7 37 3 52 52 S 16 26 29.57 1001 10 16.0934 0 0
1:55 pm 13:55 Sunny 56 13.4 37 3 50 50 SSE 15 24 29.54 1000 10 16.0934 0 0
2:15 pm 14:15 Sunny 58 14.2 35 1.7 43 43 S 16 26 29.51 999 10 16.0934 0 0
2:35 pm 14:35 Sunny 59 14.8 33 0.3 37 37 S 22 35 29.49 999 10 16.0934 0 0
2:55 pm 14:55 Sunny 59 15 32 -0.1 36 36 S 25 41 29.48 998 10 16.0934 0 0
3:15 pm 15:15 Sunny 58 14.6 32 0 37 37 S 22 35 29.47 998 10 16.0934 0 0
3:35 pm 15:35 Sunny 57 14.1 32 -0.1 38 38 S 18 30 29.46 998 10 16.0934 0 0
3:55 pm 15:55 Sunny 57 14.1 32 0.2 39 39 S 14 22 29.46 998 10 16.0934 0 0
4:15 pm 16:15 Sunny 56 13.6 32 0.2 40 40 S 13 20 29.46 998 10 16.0934 0 0
4:35 pm 16:35 Sunny 55 12.8 32 0.1 42 42 SSE 13 20 29.46 997 10 16.0934 0 0
4:55 pm 16:55 Sunny 53 11.8 32 0.2 45 45 SSE 10 17 29.45 997 10 16.0934 0 0
5:15 pm 17:15 Sunny 51 10.6 32 0.1 49 49 SSE 8 13 29.45 997 10 16.0934 0 0
5:35 pm 17:35 Clear 49 9.7 32 0 51 51 SE 3 6 29.45 997 10 16.0934 0 0
5:55 pm 17:55 Clear 47 8.4 32 0 56 56 ESE 5 7 29.47 998 10 16.0934 0 0
6:15 pm 18:15 Clear 48 8.7 31 -0.6 52 52 ESE 5 7 29.44 997 10 16.0934 0 0
6:35 pm 18:35 Clear 47 8.3 30 -0.9 53 53 SSE 8 13 29.44 997 10 16.0934 0 0
6:55 pm 18:55 Clear 47 8.6 31 -0.6 53 53 S 13 20 29.42 996 10 16.0934 0 0
7:15 pm 19:15 Clear 49 9.5 32 -0.1 51 51 S 17 28 29.41 996 10 16.0934 0 0
7:35 pm 19:35 Clear 49 9.5 32 0 52 52 S 18 30 29.41 996 10 16.0934 0 0
7:55 pm 19:55 Clear 47 8.5 32 0 55 55 S 13 20 29.41 996 10 16.0934 0 0
8:15 pm 20:15 Clear 46 7.6 32 0 59 59 SSE 9 15 29.4 996 10 16.0934 0 0
8:35 pm 20:35 Clear 44 6.6 32 0 63 63 SSE 7 11 29.4 996 10 16.0934 0 0
8:55 pm 20:55 Clear 45 7.1 32 -0.1 61 61 SE 7 11 29.39 995 10 16.0934 0 0
9:15 pm 21:15 Clear 45 7.1 31 -0.3 60 60 SE 8 13 29.38 995 10 16.0934 0 0
9:35 pm 21:35 Clear 45 7.3 31 -0.6 58 58 SE 7 11 29.38 995 10 16.0934 0 0
9:55 pm 21:55 Clear 46 7.8 31 -0.6 56 56 SSE 8 13 29.36 994 10 16.0934 0 0
10:15 pm 22:15 Clear 44 6.7 31 -0.6 60 60 S 9 15 29.36 994 10 16.0934 0 0
10:35 pm 22:35 Clear 41 4.9 31 -0.7 67 67 N 3 6 29.39 995 10 16.0934 0 0
10:55 pm 22:55 Clear 38 3.1 31 -0.7 76 76 Calm 29.41 996 10 16.0934 0 0
11:15 pm 23:15 Clear 34 1 30 -1.2 85 85 NW 12 19 29.46 997 10 16.0934 0 0
11:35 pm 23:35 Clear 35 1.5 30 -1.3 82 82 WNW 6 9 29.46 998 10 16.0934 0 0
11:55 pm 23:55 Clear 36 2.3 31 -0.7 81 81 WNW 12 19 29.45 997 10 16.0934 0 0

Powered by AerisWeather